TimeCST,TemperatureF,Dew PointF,Humidity,Sea Level PressureIn,VisibilityMPH,Wind Direction,Wind SpeedMPH,Gust SpeedMPH,PrecipitationIn,Events,Conditions,WindDirDegrees,DateUTC
12:56 AM,39.0,36.0,89,30.25,10.0,NE,5.8,-,N/A,,Clear,50,2012-12-14 06:56:00
1:56 AM,41.0,39.0,93,30.25,10.0,ENE,6.9,-,N/A,,Clear,60,2012-12-14 07:56:00
2:56 AM,42.1,39.0,89,30.24,10.0,ENE,5.8,-,N/A,,Clear,60,2012-12-14 08:56:00
3:56 AM,39.0,37.0,93,30.24,10.0,ENE,4.6,-,N/A,,Clear,70,2012-12-14 09:56:00
4:12 AM,39.2,37.4,93,30.29,10.0,Calm,Calm,-,N/A,,Scattered Clouds,0,2012-12-14 10:12:00
4:21 AM,41.0,39.2,93,30.28,10.0,ENE,6.9,-,N/A,,Mostly Cloudy,70,2012-12-14 10:21:00
4:38 AM,41.0,39.2,93,30.28,2.0,ENE,6.9,-,N/A,,Overcast,70,2012-12-14 10:38:00
4:47 AM,41.0,39.2,93,30.28,1.5,East,5.8,-,N/A,,Overcast,80,2012-12-14 10:47:00
4:56 AM,42.1,39.9,92,30.25,1.2,ENE,8.1,-,N/A,,Overcast,70,2012-12-14 10:56:00
5:42 AM,42.8,39.2,87,30.29,0.8,ENE,8.1,-,N/A,,Mist,60,2012-12-14 11:42:00
5:56 AM,42.1,39.9,92,30.26,0.8,ENE,9.2,-,N/A,,Mist,60,2012-12-14 11:56:00
6:29 AM,42.8,41.0,93,30.30,1.0,ENE,6.9,-,N/A,,Mist,70,2012-12-14 12:29:00
6:56 AM,42.1,41.0,96,30.28,0.8,East,8.1,-,N/A,,Mist,90,2012-12-14 12:56:00
7:11 AM,42.8,41.0,93,30.32,1.0,East,8.1,-,N/A,,Mist,90,2012-12-14 13:11:00
7:38 AM,42.8,41.0,93,30.33,2.5,East,8.1,-,N/A,,Overcast,80,2012-12-14 13:38:00
7:56 AM,43.0,41.0,93,30.30,1.8,East,8.1,-,N/A,,Overcast,100,2012-12-14 13:56:00
8:21 AM,42.8,42.8,100,30.33,2.0,East,5.8,-,N/A,,Overcast,80,2012-12-14 14:21:00
8:36 AM,42.8,42.8,100,30.33,3.0,East,5.8,-,N/A,,Overcast,80,2012-12-14 14:36:00
8:56 AM,44.1,42.1,93,30.30,4.0,East,5.8,-,N/A,,Overcast,80,2012-12-14 14:56:00
9:56 AM,45.0,43.0,93,30.31,10.0,NE,6.9,-,N/A,,Overcast,50,2012-12-14 15:56:00
10:56 AM,46.9,44.1,90,30.28,10.0,ESE,5.8,-,N/A,,Overcast,110,2012-12-14 16:56:00
11:31 AM,48.2,42.8,82,30.30,10.0,ESE,4.6,-,N/A,,Overcast,110,2012-12-14 17:31:00
12:56 PM,50.0,44.1,80,30.22,10.0,Variable,3.5,-,N/A,,Overcast,0,2012-12-14 18:56:00
1:04 PM,50.0,44.6,82,30.25,10.0,East,4.6,-,N/A,,Overcast,80,2012-12-14 19:04:00
1:56 PM,50.0,43.0,77,30.20,10.0,North,4.6,-,N/A,,Overcast,10,2012-12-14 19:56:00
2:56 PM,50.0,43.0,77,30.21,10.0,Calm,Calm,-,N/A,,Overcast,0,2012-12-14 20:56:00
3:56 PM,50.0,43.0,77,30.20,10.0,Calm,Calm,-,N/A,,Overcast,0,2012-12-14 21:56:00
4:56 PM,48.9,42.1,77,30.19,10.0,Calm,Calm,-,N/A,,Overcast,0,2012-12-14 22:56:00
5:24 PM,46.4,41.0,81,30.23,10.0,Calm,Calm,-,N/A,,Scattered Clouds,0,2012-12-14 23:24:00
5:56 PM,45.0,42.1,90,30.19,10.0,Calm,Calm,-,N/A,,Clear,0,2012-12-14 23:56:00
6:56 PM,44.1,42.1,93,30.19,10.0,Calm,Calm,-,N/A,,Clear,0,2012-12-15 00:56:00
7:56 PM,44.1,41.0,89,30.15,10.0,ESE,8.1,-,N/A,,Clear,110,2012-12-15 01:56:00
8:56 PM,43.0,41.0,93,30.15,10.0,SE,5.8,-,N/A,,Clear,130,2012-12-15 02:56:00
9:56 PM,46.0,43.0,89,30.14,10.0,East,5.8,-,N/A,,Clear,100,2012-12-15 03:56:00
10:56 PM,43.0,42.1,97,30.16,10.0,Calm,Calm,-,N/A,,Clear,0,2012-12-15 04:56:00
11:56 PM,44.1,42.1,93,30.13,10.0,Calm,Calm,-,N/A,,Clear,0,2012-12-15 05:56:00